Location: Old Broadwell Mill Observatory
(33.8015°N, 85.8137°W)
Time: 01:24:06
(UTC-05:00)

Daily predictions for brighter satellites

Satellite Brightness Start Highest point End
(mag) Time Altitude Azimuth Time Altitude Azimuth Time Altitude Azimuth
Cosmos 2322 Rocket 4.0 03:42:37 24° NNE 03:42:37 24° NNE 03:44:48 10° NNE
SL-16 R/B 3.9 03:45:38 26° N 03:45:38 26° N 03:48:02 10° NNE
Lacrosse 5 3.9 03:44:39 24° E 03:44:39 24° E 03:47:15 10° ESE
Okean O Rocket 4.0 03:45:36 10° NE 03:47:42 21° ENE 03:47:42 21° ENE
Cosmos 2360 Rocket 2.5 04:12:48 63° NE 04:12:48 63° NE 04:17:34 10° NNE
USA 215 3.8 04:07:02 10° ESE 04:13:22 54° NE 04:19:43 10° NNW
CENTAUR R/B 4.1 04:16:52 23° NNW 04:16:52 23° NNW 04:21:00 10° N
CZ-2D R/B 4.4 04:13:54 10° NNW 04:14:34 13° NNW 04:14:34 13° NNW
Tiangong 2 4.4 04:25:36 11° NE 04:25:36 11° NE 04:25:54 10° NE
PAYLOAD B 4.5 04:20:04 10° NNE 04:25:39 66° ESE 04:26:57 50° SSE
Meteor 1-18 Rocket 4.1 04:26:58 81° N 04:26:58 81° N 04:32:15 10° N
Cosmos 1340 4.4 04:34:52 28° NNE 04:34:52 28° NNE 04:36:46 10° NNE
Cosmos 2263 Rocket 3.4 04:29:28 10° NNW 04:38:12 27° S 04:40:34 10° SSE
Cosmos 1536 Rocket 3.8 04:36:48 68° E 04:36:48 68° E 04:41:12 10° NNE
ISS -1.6 04:40:53 24° NE 04:40:54 24° NE 04:43:40 10° E
Cosmos 2327 Rocket 4.3 04:35:12 10° N 04:41:31 86° W 04:47:41 10° S
ASTRO E2 4.0 04:43:25 33° SE 04:43:25 33° SE 04:45:52 10° ESE
Cosmos 2322 3.6 04:42:22 65° W 04:42:35 65° WNW 04:48:18 10° NNE
EO 1 Del DPAF 3.7 04:44:26 58° NE 04:44:26 58° NE 04:47:49 10° N
CZ-2C R/B 4.2 04:41:49 10° SSE 04:46:22 60° ENE 04:50:51 10° N
Lacrosse 4 Rocket 3.4 04:43:36 10° N 04:47:19 30° ENE 04:51:05 10° ESE
Nadezhda 1 Rocket 3.8 04:45:26 39° SSW 04:47:49 78° W 04:53:55 10° N
DELTA 2 R/B (1) 3.4 04:49:49 63° W 04:50:46 84° NNW 04:56:20 10° ENE
Cosmos 1975 2.9 04:51:30 10° N 04:55:04 67° NNW 04:55:04 67° NNW
ADEOS II 2.0 04:50:42 10° N 04:55:56 69° WNW 04:57:26 46° SW
PSLV R/B 3.4 04:54:36 10° N 04:58:55 67° WNW 04:59:09 65° W
Cosmos 1900 4.3 04:58:11 49° WNW 04:59:07 58° WSW 05:04:07 10° SSE
Cosmos 1777 Rocket 3.9 04:55:43 10° NNW 05:01:00 73° WSW 05:06:16 10° S
Cosmos 2333 4.2 04:58:08 24° SSW 05:01:36 80° ESE 05:07:17 10° NNE
Cosmos 2074 Rocket 4.1 04:58:02 10° NNW 05:04:01 50° W 05:09:58 10° SSW
CZ-4B DEB 4.3 05:04:11 10° N 05:09:35 53° WNW 05:11:59 31° SW
OAO 3 Copernicus 4.2 05:11:26 42° WSW 05:13:10 89° S 05:18:12 10° E
IRAS Rocket 4.4 05:08:29 10° N 05:13:51 52° WNW 05:16:41 27° SW
CZ-4B R/B 3.5 05:10:22 10° N 05:15:44 47° WNW 05:18:19 28° SW
Meteor PRIRODA 3.6 05:17:51 10° N 05:21:34 63° WNW 05:23:26 27° SSW
Okean O Rocket 2.9 05:22:07 10° NNW 05:25:11 22° WNW 05:25:11 22° WNW
Lacrosse 5 2.4 05:23:59 28° W 05:25:46 36° WSW 05:30:22 10° S
Cosmos 2208 Rocket 4.3 05:25:01 23° SW 05:28:11 48° WNW 05:33:29 10° N
COSMOS 2428 2.9 05:25:18 22° SW 05:28:48 51° WNW 05:34:20 10° N
Aureole 2 Rocket 4.4 05:26:50 10° SSE 05:30:19 33° ESE 05:33:35 10° NE
Cosmos 2285 Rocket 4.2 05:25:17 10° S 05:31:41 76° ESE 05:38:08 10° NNE
Okean-O 2.5 05:29:33 10° N 05:33:59 72° WNW 05:38:23 10° SSW
Meteor 1-19 Rocket 4.2 05:30:13 10° SSW 05:35:43 60° W 05:41:20 10° N
CZ-4B R/B 4.1 05:31:26 10° N 05:35:54 67° WNW 05:40:20 10° SSW
COSMO-SKYMED 1 4.2 05:32:27 10° SE 05:36:26 37° ENE 05:40:27 10° N
Cosmos 1238 Rocket 3.0 05:37:41 29° W 05:37:41 29° W 05:40:20 10° NNW
Cosmos 2219 Rocket 2.1 05:34:20 10° SSW 05:39:53 75° WNW 05:45:29 10° NNE
ERS-2 2.7 05:37:25 10° N 05:40:52 37° WNW 05:43:20 16° SW
Meteor 2-9 Rocket 4.5 05:37:04 10° N 05:42:45 73° E 05:48:14 10° SSE
Cosmos 1437 3.4 05:43:05 10° S 05:46:17 57° E 05:49:31 10° NNE
GPS 2-04 Rocket1 4.2 05:43:23 11° SSW 05:46:35 27° SSE 05:49:46 10° E
GOES 2 Rocket 4.2 05:43:09 18° WSW 05:46:57 51° S 05:53:34 10° ESE
Cosmos 1892 Rocket 4.3 05:47:28 10° S 05:51:42 56° E 05:55:58 10° NNE
Thor Agena Rocket 3.4 05:47:34 10° S 05:52:38 81° WSW 05:57:42 10° NNW
Cosmos 1025 Rocket 3.0 05:49:07 10° SSW 05:53:25 62° W 05:57:46 10° N
Cosmos 1844 Rocket 2.6 05:48:12 10° NNW 05:53:48 80° WSW 05:59:21 10° SSE
NOSS 0 Rocket 3.9 05:49:19 10° SSW 05:55:31 82° WNW 06:01:42 10° NNE
USA 215 3.8 05:50:30 10° S 05:56:25 36° SW 06:02:22 10° WNW
Cosmos 2360 Rocket 4.0 05:54:36 11° WNW 05:56:32 13° NW 05:59:05 10° NNW
Meteor 2-4 Rocket 3.8 05:52:45 10° SSW 05:58:16 52° W 06:03:39 10° N
Cosmos 1295 Rocket 4.5 05:53:13 10° NNW 05:59:21 63° W 06:05:23 10° S
Tiangong 2 3.0 05:58:32 10° NW 06:01:13 25° NNE 06:03:54 10° ENE
Cosmos 2278 Rocket 3.4 05:56:01 10° N 06:01:29 47° ENE 06:06:54 10° SE
Cosmos 405 Rocket 2.8 05:58:12 10° SSW 06:02:15 67° W 06:06:18 10° N
Cosmos 2237 Rocket 2.2 05:57:36 10° SSW 06:03:16 83° WNW 06:09:00 10° NNE
Cosmos 2366 rocket 4.3 05:58:27 10° N 06:04:49 78° E 06:11:10 10° S
USA 229 DEB 3.9 05:59:42 10° SW 06:06:22 55° NW 06:13:09 10° NNE
USA 229 3.9 05:59:48 10° SW 06:06:28 56° NW 06:13:15 10° NNE
Cosmos 1515 4.1 06:06:39 10° S 06:10:28 70° E 06:14:18 10° NNE
Meteor 1-31 Rocket 4.2 06:10:14 10° NNW 06:12:58 19° WNW 06:15:40 10° WSW
Cosmos 2333 Rocket 2.6 06:11:50 10° SW 06:17:15 45° WNW 06:22:45 10° N
ISS -2.7 06:14:30 10° WNW 06:17:20 26° SW 06:20:09 10° S
Cosmos 1743 4.3 06:15:13 10° NW 06:17:34 16° W 06:19:54 10° SW
Cosmos 1666 3.7 06:14:38 10° NNW 06:17:55 27° W 06:21:11 10° SSW
NOSS 3-1 (A) 4.2 06:13:24 10° S 06:18:53 54° ESE 06:24:54 10° NE
Cosmos 1898 Rocket 3.5 06:15:03 10° NNW 06:20:13 67° WSW 06:25:19 10° S
